GW7264 Weather Reports


time (UTC)temp
F
wind
direction
speed
knots
gust
knots
rain 1hr
in
rain 24hr
in
rain mn
in
humidity
%
barometer
mb
20260506201219 49 285 2.6 7.0 0.04 0.44 0.40 95 1005.9
20260506200205 49 322 1.7 7.0 0.00 0.43 0.40 95 1005.9
20260506195140 49 306 1.7 7.0 0.00 0.43 0.40 95 1005.7
20260506194151 49 291 1.7 5.2 0.00 0.43 0.38 95 1005.8
20260506193200 49 324 1.7 5.2 0.00 0.42 0.38 96 1005.8
20260506192203 49 295 1.7 5.2 0.00 0.44 0.38 96 1005.7
20260506190040 48 329 1.7 4.3 0.00 0.47 0.38 95 1005.5
20260506185054 48 20 1.7 7.0 0.00 0.47 0.38 95 1005.5
20260506181815 47 306 0.0 1.7 0.00 0.47 0.38 95 1005.2
20260506180744 47 303 0.0 1.7 0.00 0.45 0.37 95 1005.2
20260506175717 47 39 0.0 2.6 0.00 0.45 0.37 95 1005.2
20260506174716 47 318 0.9 2.6 0.00 0.44 0.36 95 1005.1
20260506173659 47 305 1.7 3.5 0.00 0.44 0.36 95 1005.0
20260506172644 47 331 1.7 4.3 0.00 0.44 0.35 95 1005.0
20260506171647 47 288 1.7 4.3 0.00 0.44 0.35 95 1005.0
20260506170639 46 272 1.7 3.5 0.00 0.44 0.35 95 1005.1
20260506165642 46 269 0.9 3.5 0.00 0.42 0.34 95 1005.0
20260506164653 46 211 0.9 3.5 0.00 0.42 0.34 95 1005.0
20260506163650 46 324 1.7 3.5 0.00 0.42 0.34 95 1005.1
20260506162704 46 293 1.7 3.5 0.00 0.42 0.34 95 1005.4
20260506161713 46 314 0.9 3.5 0.00 0.42 0.34 94 1005.5
20260506160643 46 340 0.0 1.7 0.00 0.42 0.34 94 1005.5
20260506155632 45 46 0.0 2.6 0.00 0.42 0.34 94 1005.4
20260506154658 45 344 0.9 4.3 0.00 0.41 0.33 94 1005.7
20260506153643 45 20 0.9 5.2 0.00 0.41 0.33 94 1005.3
20260506152658 45 1 1.7 5.2 0.00 0.41 0.32 94 1005.1
20260506151643 45 46 0.9 5.2 0.06 0.41 0.32 94 1005.1
20260506150632 45 28 0.9 5.2 0.05 0.39 0.31 94 1005.2
20260506145604 45 28 1.7 5.2 0.05 0.38 0.30 94 1005.4
20260506144559 45 1 0.9 2.6 0.05 0.38 0.28 94 1005.2
20260506142355 45 23 0.0 1.7 0.05 0.35 0.27 95 1005.1
20260506141338 45 59 0.0 1.7 0.05 0.35 0.27 94 1005.2
20260506140314 45 349 0.9 2.6 0.05 0.34 0.26 94 1005.3
20260506135251 45 13 0.9 3.5 0.08 0.33 0.25 94 1005.4
20260506134253 45 324 1.7 3.5 0.09 0.33 0.24 94 1005.5
20260506133300 45 347 0.9 3.5 0.12 0.30 0.21 94 1005.3
20260506132321 45 323 0.9 3.5 0.08 0.28 0.20 94 1005.3
20260506125049 45 334 0.0 2.6 0.00 0.25 0.16 93 1005.0
20260506124053 45 1 0.9 3.5 0.00 0.23 0.15 93 1005.3
20260506123049 45 32 1.7 6.1 0.00 0.23 0.15 93 1005.2
20260506120911 45 340 0.9 5.2 0.00 0.21 0.13 93 1005.4
20260506115843 45 28 2.6 7.0 0.04 0.21 0.13 93 1005.1
20260506114851 45 42 2.6 7.0 0.05 0.20 0.12 93 1005.1
20260506113855 45 23 1.7 7.8 0.08 0.20 0.12 93 1005.2
20260506111745 45 72 1.7 6.1 0.00 0.18 0.10 92 1005.4
20260506110804 45 63 1.7 6.1 0.00 0.17 0.09 92 1005.4
20260506105757 45 344 1.7 5.2 0.00 0.17 0.09 92 1005.4
20260506103622 45 40 0.9 4.3 0.00 0.16 0.08 90 1005.7
20260506102641 45 223 0.9 5.2 0.00 0.16 0.08 91 1005.8
20260506100513 45 28 2.6 7.0 0.00 0.15 0.06 91 1005.8
20260506095527 45 320 1.7 7.0 0.00 0.15 0.06 92 1005.6
20260506094540 45 39 1.7 7.0 0.00 0.15 0.06 92 1005.4
20260506093523 45 21 1.7 6.1 0.00 0.14 0.06 92 1005.6
20260506092535 46 32 1.7 5.2 0.00 0.14 0.06 93 1005.7
20260506091529 46 32 0.9 3.5 0.00 0.13 0.05 94 1006.2
20260506090501 46 40 0.9 3.5 0.00 0.14 0.05 94 1006.1
20260506085442 46 336 0.9 6.1 0.00 0.15 0.05 93 1006.0
20260506084415 46 348 2.6 7.8 0.00 0.15 0.05 93 1006.0
20260506083344 46 30 1.7 7.8 0.00 0.14 0.04 93 1006.1
20260506082404 46 345 1.7 7.0 0.00 0.14 0.04 94 1006.0
20260506081334 47 18 1.7 5.2 0.00 0.14 0.04 94 1005.8
20260506080321 47 335 2.6 7.0 0.00 0.14 0.04 94 1005.9
20260506073216 48 344 0.0 1.7 0.00 0.14 0.04 96 1005.9
20260506072229 48 344 0.0 1.7 0.05 0.14 0.04 96 1005.9
20260506071202 49 117 0.0 4.3 0.10 0.13 0.04 96 1006.3
20260506070216 49 202 0.9 4.3 0.00 0.10 0.01 96 1006.8
20260506062144 49 1 0.0 1.7 0.00 0.10 0.00 95 1006.6
20260506043744 49 293 0.9 2.6 0.00 0.10 0.00 94 1007.5
20260506042736 49 279 0.9 3.5 0.00 0.10 0.00 94 1007.4
20260506041734 49 245 0.9 3.5 0.00 0.10 0.00 94 1008.0
20260506040759 50 223 0.9 3.5 0.00 0.10 0.00 94 1007.9
20260506035821 50 311 1.7 3.5 0.00 0.10 0.10 94 1008.0
20260506034807 50 194 0.9 4.3 0.00 0.10 0.10 94 1008.1
20260506033749 50 297 1.7 4.3 0.00 0.09 0.10 93 1007.8
20260506032744 50 178 1.7 4.3 0.00 0.09 0.10 93 1008.0
20260506031759 50 236 1.7 4.3 0.00 0.09 0.10 93 1007.8
20260506030746 51 250 1.7 3.5 0.00 0.09 0.10 93 1007.9
20260506025752 51 303 1.7 6.1 0.00 0.09 0.09 92 1008.1
20260506024729 52 223 2.6 6.1 0.00 0.09 0.09 92 1008.0
20260506023655 52 276 0.9 3.5 0.00 0.09 0.09 91 1007.1
20260506021542 53 304 0.9 4.3 0.00 0.09 0.09 88 1006.9
20260506020538 53 316 1.7 6.1 0.00 0.08 0.08 87 1007.2
20260506015557 54 325 2.6 6.1 0.00 0.08 0.08 85 1007.2
20260506014547 55 308 2.6 6.1 0.00 0.08 0.08 83 1007.2
20260506013522 55 296 2.6 6.1 0.00 0.08 0.08 81 1007.0
20260506012502 56 300 2.6 6.1 0.00 0.08 0.08 80 1006.6
20260506011500 56 327 1.7 7.0 0.00 0.08 0.08 80 1006.9
20260506005341 58 254 2.6 7.0 0.00 0.08 0.08 76 1006.5
20260506004321 58 264 2.6 7.0 0.00 0.06 0.06 74 1006.3
20260506002225 58 318 3.5 7.0 0.00 0.06 0.06 74 1005.9
20260506001239 58 283 3.5 7.8 0.00 0.06 0.06 74 1005.4
20260506000240 59 283 4.3 11.3 0.00 0.06 0.06 73 1005.4
20260505235232 59 308 4.3 11.3 0.00 0.06 0.06 73 1005.2
20260505233027 59 279 4.3 9.6 0.00 0.06 0.06 76 1004.6
20260505232043 60 336 2.6 7.0 0.00 0.06 0.06 82 1004.7
20260505231031 60 264 1.7 7.0 0.00 0.06 0.06 84 1004.3
20260505230006 61 314 2.6 7.8 0.00 0.06 0.06 84 1004.1
20260505225029 61 274 2.6 11.3 0.00 0.06 0.06 85 1003.5
20260505224043 62 14 3.5 11.3 0.00 0.06 0.06 86 1003.6
20260505223021 63 300 4.3 10.4 0.00 0.06 0.06 86 1003.2
20260505221948 64 318 4.3 9.6 0.00 0.06 0.06 88 1003.3
20260505221009 65 262 2.6 8.7 0.00 0.06 0.06 88 1003.3
20260505220004 65 293 0.0 3.5 0.00 0.06 0.06 87 1002.9
20260505215015 65 46 0.9 4.3 0.00 0.06 0.06 87 1002.4
20260505214002 65 130 1.7 4.3 0.00 0.06 0.06 85 1002.4
20260505212938 65 129 1.7 3.5 0.00 0.06 0.06 85 1002.6
20260505204515 66 303 1.7 4.3 0.00 0.06 0.06 80 1002.4
20260505203443 66 276 1.7 6.1 0.00 0.06 0.06 82 1002.6
20260505202410 66 250 2.6 7.8 0.00 0.06 0.06 81 1002.5